RH
53 55 69 72 70 64 60 60 69 69 72 62 45 43 42 45 45 41 45 41 44 52 48 50 50 78 86 73 67 64 57 43 36 26 25 25 24 24 22 22 22 23 23
66 58 61 63 58 53 51 52 55 60 67 62 53 53 52 47 42 39 39 42 41 49 53 54 85 90 84 68 69 68 61 48 44 34 26 24 24 24 23 21 23 22 25
84 74 73 67 60 48 45 48 46 45 46 48 40 38 37 39 39 38 38 34 32 38 46 72 86 88 79 68 68 68 65 60 54 45 30 25 25 24 22 24 26 25 26
99 88 80 77 73 51 47 45 42 37 32 34 37 35 33 35 38 39 34 30 27 34 47 66 66 75 80 70 73 73 73 69 62 57 45 33 28 24 26 29 30 29 31
72 78 85 71 73 53 48 47 42 37 33 30 39 36 38 34 36 35 31 28 24 29 42 77 88 92 76 67 70 76 81 78 75 66 59 52 41 38 37 33 34 34 36
66 50 48 60 55 49 58 54 43 44 36 35 34 36 37 38 42 36 30 28 24 29 65 90 84 69 66 64 68 74 79 80 82 74 66 53 52 46 40 42 35 37 40
70 46 50 53 51 48 51 57 50 41 41 36 38 42 40 43 46 39 32 27 23 33 57 72 71 65 61 66 71 73 81 84 79 70 61 62 56 51 47 43 42 42 41
84 55 50 60 61 55 55 63 62 48 45 42 41 38 40 39 44 40 34 29 24 37 56 60 61 61 59 63 63 68 73 78 79 66 68 64 58 54 47 49 47 45 39
89 72 57 61 64 60 65 66 68 62 52 47 45 42 40 41 42 38 35 29 29 37 48 48 49 55 59 62 62 66 72 76 75 71 68 62 58 56 56 54 52 48 46
100 100 74 87 78 67 74 71 71 67 58 52 50 50 43 44 43 38 36 31 33 33 40 43 42 47 57 64 64 65 68 77 67 65 62 63 57 56 59 58 54 59 47
95 100 100 87 96 90 82 80 78 64 63 61 62 57 47 44 45 39 37 34 32 34 33 37 42 48 56 58 57 68 66 63 70 66 69 65 60 64 62 58 62 58 54
97 94 92 88 85 100 92 94 73 64 63 67 70 59 49 48 48 41 38 39 36 34 36 39 46 48 51 54 58 57 64 69 75 73 71 74 64 60 59 62 64 66 55
89 86 74 86 99 96 93 96 79 72 66 60 75 53 47 47 48 42 41 40 39 37 38 46 47 46 50 52 57 60 69 77 77 73 75 63 69 65 62 71 71 72 52
89 96 72 82 84 100 92 94 87 76 68 52 56 47 47 49 47 44 46 45 42 42 41 46 47 51 52 59 64 69 72 72 75 78 72 71 63 65 80 87 78 57 55
98 81 77 76 78 90 94 89 90 82 76 64 50 45 43 49 51 51 52 49 44 45 51 53 54 60 66 66 71 74 71 71 70 72 71 67 74 94 92 79 67 66 61
98 93 93 100 78 86 100 95 92 89 86 81 64 54 50 47 50 52 55 55 55 59 60 61 64 68 71 69 77 82 73 70 72 74 69 83 97 92 85 70 72 68 60
100 100 96 82 96 94 100 100 98 91 91 95 88 74 69 63 54 54 53 58 62 62 63 65 65 65 67 69 68 72 74 78 79 76 98 100 98 86 72 69 65 67 66
96 100 83 75 96 94 98 100 100 98 98 92 95 97 97 86 74 63 64 63 65 66 68 70 69 71 74 80 86 88 90 90 94 100 91 97 90 87 75 69 69 71 70
100 100 76 95 95 99 100 100 100 99 99 96 100 100 100 100 100 98 89 79 80 81 78 76 76 76 80 87 94 97 97 100 100 93 93 85 84 78 79 74 78 80 80
100 100 100 87 90 97 99 100 100 100 100 100 100 96 97 97 100 100 100 97 96 97 92 94 97 98 100 100 100 100 100 99 83 88 86 86 81 82 83 93 96 95 95
100 100 100 100 96 100 100 100 100 100 100 100 100 100 100 100 100 100 100 100 100 100 100 100 100 100 100 100 100 100 98 95 94 100 97 100 90 94 97 93 100 100 97
100 100 100 100 97 96 99 97 91 96 100 100 100 100 100 89 99 100 100 94 96 100 99 100 100 100 100 100 100 100 100 100 100 100 100 100 100 100 100 100 100 99 88
100 100 100 100 100 100 86 94 97 98 100 100 100 100 98 95 99 88 84 86 89 96 100 100 100 100 100 100 100 100 98 100 100 100 100 100 100 100 100 99 100 94 92
100 100 100 100 100 100 99 94 91 99 100 100 100 100 100 100 100 91 79 98 96 100 100 100 100 100 100 100 100 95 100 100 100 100 100 100 100 100 100 100 100 98 83
99 100 100 100 100 100 100 100 100 100 89 99 100 100 100 100 100 100 100 100 100 100 100 100 100 100 100 100 100 100 100 100 100 100 100 100 100 100 100 95 97 83 85
100 100 100 100 100 100 100 100 100 100 100 100 98 100 100 100 100 100 96 100 94 96 99 100 100 100 100 100 100 100 100 100 100 100 100 100 100 100 97 100 89 87 88
Wind_Speed
47 43 44 43 41 38 35 34 31 30 27 26 28 29 29 29 31 32 30 29 29 29 29 30 30 23 23 25 25 25 26 26 27 26 27 28 30 31 33 35 39 42 44
49 46 43 45 43 42 40 37 35 33 32 30 29 29 29 31 31 31 29 31 29 29 32 30 25 23 24 25 24 26 28 28 29 30 30 31 33 34 37 40 43 45 48
49 49 46 44 43 43 42 41 39 37 35 33 32 31 32 33 32 33 30 28 31 31 30 27 25 27 25 25 25 26 28 29 32 34 33 34 36 38 42 44 47 49 51
53 51 49 47 44 43 43 43 41 39 38 37 34 34 34 32 31 30 29 29 30 28 29 29 29 28 26 26 26 27 30 32 34 37 37 37 40 42 45 47 49 51 55
52 53 51 51 48 44 43 42 41 42 41 40 36 35 34 32 32 30 31 29 29 29 29 28 27 26 27 28 29 30 33 35 37 38 39 41 43 45 47 49 51 54 56
48 50 51 50 48 45 42 40 40 40 40 40 38 36 36 33 33 30 32 32 31 29 28 27 29 30 31 30 30 34 35 38 39 41 42 44 45 47 50 51 53 56 57
47 47 48 47 47 46 42 40 38 36 37 38 37 37 35 33 33 32 33 33 31 30 28 29 31 32 32 32 34 36 37 39 40 42 43 44 47 48 50 52 54 56 58
48 48 47 45 45 44 43 41 40 38 36 36 37 37 35 35 34 33 35 34 32 32 30 32 33 34 34 35 37 38 39 40 41 42 43 46 47 50 51 54 55 57 60
50 48 48 47 46 45 43 40 40 40 38 38 37 38 37 37 36 34 35 33 33 34 35 36 36 36 36 38 40 40 40 41 42 44 45 46 48 52 54 56 59 59 61
56 52 49 47 48 46 45 42 42 41 40 39 38 40 39 38 36 35 35 34 34 35 36 38 38 38 38 40 42 43 43 43 44 45 47 49 51 52 54 56 59 60 63
60 54 51 48 47 46 44 44 44 42 41 41 41 41 41 40 37 36 36 35 36 37 37 38 38 39 41 42 43 44 44 43 44 47 48 50 52 52 54 58 60 63 64
64 58 53 50 48 48 46 46 44 42 41 42 42 43 42 42 40 38 38 37 37 38 39 39 39 41 41 42 44 43 44 45 48 50 51 54 55 56 57 61 63 65 67
65 63 58 56 51 51 49 47 45 44 43 42 43 43 43 42 41 40 38 38 38 38 40 40 41 41 42 43 44 45 47 49 52 52 54 57 56 60 60 64 66 68 71
69 66 63 59 57 53 51 50 49 46 44 41 41 43 42 43 42 42 41 40 40 40 40 41 42 42 44 45 46 49 50 52 52 55 59 59 60 59 64 67 69 72 73
70 65 67 64 61 57 54 50 50 48 47 45 43 42 41 43 45 45 44 43 44 45 44 45 45 46 46 48 50 50 52 55 57 59 61 60 60 65 68 70 72 75 78
75 75 65 66 65 61 58 56 54 52 50 50 48 46 44 45 47 47 47 47 47 47 47 47 48 49 50 51 54 55 57 59 60 61 63 64 68 67 70 73 75 79 80
72 73 76 63 62 65 63 60 58 56 55 52 53 52 51 50 50 50 50 50 50 51 50 51 52 52 53 55 56 58 61 62 63 65 68 68 69 72 74 77 80 82 83
74 76 75 73 73 70 68 66 63 60 58 56 55 55 55 56 56 55 54 54 53 54 54 55 55 55 57 58 59 62 64 66 68 67 67 68 70 74 79 81 83 83 83
82 77 72 75 78 76 72 68 66 65 63 62 59 59 59 61 60 59 59 58 57 58 58 58 58 59 61 62 64 66 67 69 68 68 69 71 74 78 81 82 83 84 86
79 82 81 76 75 75 75 72 70 68 66 64 64 64 61 61 62 63 62 62 62 62 62 62 63 63 65 67 67 68 66 68 68 70 73 77 79 82 83 82 83 86 87
90 84 86 82 82 79 76 73 73 71 68 65 63 61 60 60 60 60 60 60 62 64 66 68 69 68 68 68 65 60 66 66 68 72 79 81 82 82 83 85 85 88 92
92 92 84 84 84 84 82 77 75 72 74 70 67 64 67 66 64 64 65 65 66 66 66 64 66 64 64 64 61 65 66 74 77 77 80 84 84 86 86 90 93 95 98
98 95 93 93 91 84 76 80 79 74 75 74 75 75 69 66 67 68 67 67 68 70 70 66 65 65 64 66 72 76 79 78 79 81 80 83 88 92 94 97 97 101 103
105 102 98 93 92 90 87 81 81 77 77 76 77 75 74 73 72 72 74 71 71 72 72 70 70 70 70 73 78 85 84 82 81 81 86 90 94 97 100 99 102 105 109
108 106 105 101 96 95 93 91 91 89 87 84 81 78 75 76 74 72 75 75 74 75 77 75 75 77 81 84 86 88 87 87 89 90 93 95 97 98 101 105 106 109 112
109 108 107 105 103 101 98 96 95 93 92 91 90 88 85 83 78 78 79 80 79 80 81 80 82 85 88 88 90 91 91 92 94 95 94 97 99 102 106 107 111 114 117
Wind_Direction
235 236 233 237 243 250 251 255 257 256 261 264 262 265 272 277 283 284 285 287 289 292 291 291 292 289 292 290 296 300 300 296 297 297 298 301 306 309 311 315 318 320 320
235 237 237 238 243 249 252 255 259 262 260 263 268 269 272 275 279 283 286 285 286 285 288 287 280 285 285 287 293 296 297 295 296 296 296 297 301 307 310 313 316 318 320
236 239 241 243 246 248 251 253 257 260 262 262 266 269 271 274 277 283 280 280 282 282 282 279 279 283 278 283 288 295 294 294 295 296 296 297 299 304 307 312 315 318 320
237 239 242 245 248 250 252 254 256 258 260 262 263 267 270 273 276 280 276 279 279 280 279 278 280 272 275 281 287 291 294 294 298 298 299 299 301 304 307 311 315 317 321
238 239 242 245 246 248 251 254 257 259 260 263 263 266 269 271 276 275 275 277 279 277 279 274 273 277 277 278 282 287 291 295 297 299 300 301 304 307 309 313 316 319 322
239 239 240 242 244 246 248 254 260 258 260 262 265 265 268 269 275 273 276 279 275 276 270 272 275 277 276 276 282 286 290 294 296 299 301 303 306 310 313 314 318 320 321
238 238 239 242 245 245 248 256 259 258 259 261 265 266 267 271 271 274 274 276 274 274 270 271 270 273 273 276 281 284 289 294 297 300 302 304 307 311 313 317 319 319 321
238 238 239 242 244 246 252 254 256 256 259 263 263 264 266 269 270 273 275 275 273 271 268 269 271 272 273 275 279 283 289 293 297 300 302 304 307 311 314 317 319 321 321
235 238 238 239 242 246 250 253 258 259 260 263 264 264 266 267 269 269 274 270 272 271 268 269 270 270 271 276 280 285 290 294 297 299 301 304 308 312 313 316 318 320 319
236 236 239 240 242 244 249 252 256 258 260 262 263 264 265 265 267 268 272 269 271 271 270 271 274 274 274 277 282 286 290 293 295 298 301 306 309 309 311 316 317 319 319
236 238 237 240 242 243 244 250 254 256 259 261 262 264 264 265 266 268 271 270 271 272 273 274 274 276 276 280 285 288 290 292 295 299 302 304 305 307 310 316 318 318 320
235 236 239 240 243 243 245 251 252 255 260 260 261 263 264 264 266 267 268 270 272 274 275 273 273 275 278 282 285 288 291 294 296 298 302 303 303 305 308 315 316 318 318
236 237 237 240 242 244 246 249 252 256 259 260 260 261 262 263 264 266 268 268 273 274 274 273 275 277 280 284 287 290 291 292 295 298 302 304 304 307 312 314 315 315 317
235 238 238 239 242 244 245 247 252 254 258 261 260 259 259 261 263 266 267 271 274 276 276 274 277 278 282 284 287 289 291 293 295 297 302 304 306 309 310 312 313 314 316
237 238 242 241 243 242 245 247 251 253 256 259 259 259 260 260 261 265 267 269 273 275 275 277 279 281 283 285 287 290 292 295 298 300 302 304 306 307 309 311 312 314 316
238 239 239 242 242 243 246 247 249 253 256 257 259 260 261 261 262 263 266 269 271 272 273 275 278 280 282 284 286 289 293 297 299 301 301 304 305 306 308 310 312 314 315
236 238 239 241 242 245 246 247 249 251 255 257 258 261 263 264 262 264 266 267 269 271 274 276 277 279 282 284 287 291 293 295 297 299 303 304 305 307 308 310 312 314 315
232 236 240 243 243 245 247 249 250 252 253 256 258 260 262 263 263 264 265 268 270 272 275 277 279 281 282 285 287 289 292 294 297 300 300 302 305 307 309 311 312 313 314
235 239 240 244 245 245 247 250 251 253 254 255 256 259 261 263 264 265 267 269 272 274 276 276 279 281 283 285 288 290 294 297 296 300 301 304 305 307 308 311 311 312 312
231 234 238 240 246 246 247 249 251 252 252 253 255 257 258 261 263 265 267 268 270 273 274 275 278 280 283 286 291 295 298 293 297 299 301 304 305 307 308 309 309 308 309
234 235 237 241 243 248 249 248 249 250 251 253 253 255 258 262 262 262 264 267 270 273 276 278 281 283 286 290 293 292 289 295 298 301 304 303 305 305 306 306 307 306 307
236 238 238 243 246 247 249 251 251 252 253 253 254 253 254 257 259 262 265 267 268 271 274 277 279 283 284 286 285 287 294 298 299 301 302 303 304 304 304 304 305 305 306
234 239 242 244 245 245 248 249 249 249 253 254 253 255 256 258 261 262 265 269 273 273 275 277 278 279 279 283 287 290 293 297 299 300 301 300 300 301 302 304 304 305 306
235 237 239 242 246 249 249 249 249 249 250 252 256 258 260 262 265 267 268 268 271 274 275 276 276 277 282 286 288 290 293 294 295 294 294 295 297 300 300 302 304 305 307
236 238 240 241 243 246 248 252 254 254 253 252 253 254 260 264 266 268 270 269 272 272 273 274 275 279 281 283 286 288 290 291 292 293 293 295 297 299 300 302 304 305 307
237 239 241 243 244 245 247 249 251 253 254 255 255 255 255 256 258 262 263 263 266 270 271 272 276 279 281 284 285 286 287 290 291 292 294 295 296 297 299 302 304 305 306